owner,sensor,date,latitude,longitude,vertical_datum,wind_speed,wind_to_direction,wind_speed_of_gust,qcFlag 
ADCP,ioos:station:wmo:42369:1,2013-02-01T00:00:00Z,27.2070,-90.2830,60.4,1.8,72.0,99.0,'11111222,11111222,11144222' 
ADCP,ioos:station:wmo:42369:1,2013-02-01T00:20:00Z,27.2070,-90.2830,60.4,2.3,64.0,99.0,'11111222,11111222,11144222' 
ADCP,ioos:station:wmo:42369:1,2013-02-01T00:40:00Z,27.2070,-90.2830,60.4,1.2,80.0,99.0,'11111222,11111222,11144222' 
ADCP,ioos:station:wmo:42369:1,2013-02-01T01:00:00Z,27.2070,-90.2830,60.4,2.6,47.0,99.0,'11111222,11111222,11144222' 
ADCP,ioos:station:wmo:42369:1,2013-02-01T01:20:00Z,27.2070,-90.2830,60.4,1.8,88.0,99.0,'11111222,11111222,11144222' 
ADCP,ioos:station:wmo:42369:1,2013-02-01T01:40:00Z,27.2070,-90.2830,60.4,1.2,77.0,99.0,'11111222,11111222,11144222' 
ADCP,ioos:station:wmo:42369:1,2013-02-01T02:00:00Z,27.2070,-90.2830,60.4,1.8,78.0,99.0,'11111222,11111222,11144222' 
ADCP,ioos:station:wmo:42369:1,2013-02-01T02:20:00Z,27.2070,-90.2830,60.4,1.8,85.0,99.0,'11111222,11111222,11144222' 
ADCP,ioos:station:wmo:42369:1,2013-02-01T02:40:00Z,27.2070,-90.2830,60.4,1.3,81.0,99.0,'11111222,11111222,11144222' 
ADCP,ioos:station:wmo:42369:1,2013-02-01T03:00:00Z,27.2070,-90.2830,60.4,1.5,78.0,99.0,'11111222,11111222,11144222' 
ADCP,ioos:station:wmo:42369:1,2013-02-01T03:20:00Z,27.2070,-90.2830,60.4,0.9,68.0,99.0,'11111222,11111222,11144222' 
ADCP,ioos:station:wmo:42369:1,2013-02-01T03:40:00Z,27.2070,-90.2830,60.4,1.4,78.0,99.0,'11111222,11111222,11144222' 
ADCP,ioos:station:wmo:42369:1,2013-02-01T04:00:00Z,27.2070,-90.2830,60.4,2.5,52.0,99.0,'11111222,11111222,11144222' 
ADCP,ioos:station:wmo:42369:1,2013-02-01T04:20:00Z,27.2070,-90.2830,60.4,2.5,52.0,99.0,'11111222,11111222,11144222' 
ADCP,ioos:station:wmo:42369:1,2013-02-01T04:40:00Z,27.2070,-90.2830,60.4,1.4,79.0,99.0,'11111222,11111222,11144222' 
ADCP,ioos:station:wmo:42369:1,2013-02-01T05:00:00Z,27.2070,-90.2830,60.4,2.0,97.0,99.0,'11111222,11111222,11144222' 
ADCP,ioos:station:wmo:42369:1,2013-02-01T05:20:00Z,27.2070,-90.2830,60.4,2.0,97.0,99.0,'11111222,11111222,11144222' 
ADCP,ioos:station:wmo:42369:1,2013-02-01T05:40:00Z,27.2070,-90.2830,60.4,1.8,75.0,99.0,'11111222,11111222,11144222' 
ADCP,ioos:station:wmo:42369:1,2013-02-01T06:00:00Z,27.2070,-90.2830,60.4,1.9,117.0,99.0,'11111222,11111222,11144222' 
ADCP,ioos:station:wmo:42369:1,2013-02-01T06:20:00Z,27.2070,-90.2830,60.4,1.9,117.0,99.0,'11111222,11111222,11144222' 
ADCP,ioos:station:wmo:42369:1,2013-02-01T06:40:00Z,27.2070,-90.2830,60.4,1.9,117.0,99.0,'11111222,11111222,11144222' 
ADCP,ioos:station:wmo:42369:1,2013-02-01T07:00:00Z,27.2070,-90.2830,60.4,2.3,55.0,99.0,'11111222,11111222,11144222' 
ADCP,ioos:station:wmo:42369:1,2013-02-01T07:20:00Z,27.2070,-90.2830,60.4,3.2,52.0,99.0,'11111222,11111222,11144222' 
ADCP,ioos:station:wmo:42369:1,2013-02-01T07:40:00Z,27.2070,-90.2830,60.4,2.6,55.0,99.0,'11111222,11111222,11144222' 
ADCP,ioos:station:wmo:42369:1,2013-02-01T08:00:00Z,27.2070,-90.2830,60.4,1.5,78.0,99.0,'11111222,11111222,11144222' 
ADCP,ioos:station:wmo:42369:1,2013-02-01T08:20:00Z,27.2070,-90.2830,60.4,1.5,78.0,99.0,'11111222,11111222,11144222' 
ADCP,ioos:station:wmo:42369:1,2013-02-01T08:40:00Z,27.2070,-90.2830,60.4,2.5,55.0,99.0,'11111222,11111222,11144222' 
ADCP,ioos:station:wmo:42369:1,2013-02-01T09:00:00Z,27.2070,-90.2830,60.4,1.9,77.0,99.0,'11111222,11111222,11144222' 
ADCP,ioos:station:wmo:42369:1,2013-02-01T09:20:00Z,27.2070,-90.2830,60.4,1.9,77.0,99.0,'11111222,11111222,11144222' 
ADCP,ioos:station:wmo:42369:1,2013-02-01T09:40:00Z,27.2070,-90.2830,60.4,1.9,77.0,99.0,'11111222,11111222,11144222' 
ADCP,ioos:station:wmo:42369:1,2013-02-01T10:00:00Z,27.2070,-90.2830,60.4,1.9,77.0,99.0,'11111222,11111222,11144222' 
ADCP,ioos:station:wmo:42369:1,2013-02-01T10:20:00Z,27.2070,-90.2830,60.4,2.0,73.0,99.0,'11111222,11111222,11144222' 
ADCP,ioos:station:wmo:42369:1,2013-02-01T10:40:00Z,27.2070,-90.2830,60.4,2.0,73.0,99.0,'11111222,11111222,11144222' 
ADCP,ioos:station:wmo:42369:1,2013-02-01T11:00:00Z,27.2070,-90.2830,60.4,2.0,73.0,99.0,'11111222,11111222,11144222' 
ADCP,ioos:station:wmo:42369:1,2013-02-01T11:20:00Z,27.2070,-90.2830,60.4,2.0,73.0,99.0,'11111222,11111222,11144222' 
ADCP,ioos:station:wmo:42369:1,2013-02-01T11:40:00Z,27.2070,-90.2830,60.4,2.0,73.0,99.0,'11111222,11111222,11144222' 
ADCP,ioos:station:wmo:42369:1,2013-02-01T12:00:00Z,27.2070,-90.2830,60.4,1.7,101.0,99.0,'11111222,11111222,11144222' 
ADCP,ioos:station:wmo:42369:1,2013-02-01T12:20:00Z,27.2070,-90.2830,60.4,1.9,90.0,99.0,'11111222,11111222,11144222' 
ADCP,ioos:station:wmo:42369:1,2013-02-01T12:40:00Z,27.2070,-90.2830,60.4,1.9,90.0,99.0,'11111222,11111222,11144222' 
ADCP,ioos:station:wmo:42369:1,2013-02-01T13:00:00Z,27.2070,-90.2830,60.4,1.9,90.0,99.0,'11111222,11111222,11144222' 
ADCP,ioos:station:wmo:42369:1,2013-02-01T13:20:00Z,27.2070,-90.2830,60.4,1.9,90.0,99.0,'11111222,11111222,11144222' 
ADCP,ioos:station:wmo:42369:1,2013-02-01T13:40:00Z,27.2070,-90.2830,60.4,1.9,90.0,99.0,'11111222,11111222,11144222' 
ADCP,ioos:station:wmo:42369:1,2013-02-01T14:00:00Z,27.2070,-90.2830,60.4,1.1,88.0,99.0,'11111222,11111222,11144222' 
ADCP,ioos:station:wmo:42369:1,2013-02-01T14:20:00Z,27.2070,-90.2830,60.4,1.1,88.0,99.0,'11111222,11111222,11144222' 
ADCP,ioos:station:wmo:42369:1,2013-02-01T14:40:00Z,27.2070,-90.2830,60.4,1.1,88.0,99.0,'11111222,11111222,11144222' 
ADCP,ioos:station:wmo:42369:1,2013-02-01T15:00:00Z,27.2070,-90.2830,60.4,1.1,88.0,99.0,'11111222,11111222,11144222' 
ADCP,ioos:station:wmo:42369:1,2013-02-01T15:20:00Z,27.2070,-90.2830,60.4,1.1,88.0,99.0,'11111222,11111222,11144222' 
ADCP,ioos:station:wmo:42369:1,2013-02-01T15:40:00Z,27.2070,-90.2830,60.4,1.1,88.0,99.0,'11111222,11111222,11144222' 
ADCP,ioos:station:wmo:42369:1,2013-02-01T16:00:00Z,27.2070,-90.2830,60.4,1.2,91.0,99.0,'11111222,11111222,11144222' 
ADCP,ioos:station:wmo:42369:1,2013-02-01T16:20:00Z,27.2070,-90.2830,60.4,1.2,91.0,99.0,'11111222,11111222,11144222' 
ADCP,ioos:station:wmo:42369:1,2013-02-01T16:40:00Z,27.2070,-90.2830,60.4,1.2,91.0,99.0,'11111222,11111222,11144222' 
ADCP,ioos:station:wmo:42369:1,2013-02-01T17:00:00Z,27.2070,-90.2830,60.4,1.2,91.0,99.0,'11111222,11111222,11144222' 
ADCP,ioos:station:wmo:42369:1,2013-02-01T17:20:00Z,27.2070,-90.2830,60.4,1.2,91.0,99.0,'11111222,11111222,11144222' 
ADCP,ioos:station:wmo:42369:1,2013-02-01T17:40:00Z,27.2070,-90.2830,60.4,1.2,91.0,99.0,'11111222,11111222,11144222' 
ADCP,ioos:station:wmo:42369:1,2013-02-01T18:00:00Z,27.2070,-90.2830,60.4,1.0,82.0,99.0,'11111222,11111222,11144222' 
ADCP,ioos:station:wmo:42369:1,2013-02-01T18:20:00Z,27.2070,-90.2830,60.4,1.0,82.0,99.0,'11111222,11111222,11144222' 
ADCP,ioos:station:wmo:42369:1,2013-02-01T18:40:00Z,27.2070,-90.2830,60.4,1.0,82.0,99.0,'11111222,11111222,11144222' 
ADCP,ioos:station:wmo:42369:1,2013-02-01T19:00:00Z,27.2070,-90.2830,60.4,1.3,78.0,99.0,'11111222,11111222,11144222' 
ADCP,ioos:station:wmo:42369:1,2013-02-01T19:20:00Z,27.2070,-90.2830,60.4,1.9,80.0,99.0,'11111222,11111222,11144222' 
ADCP,ioos:station:wmo:42369:1,2013-02-01T19:40:00Z,27.2070,-90.2830,60.4,2.4,84.0,99.0,'11111222,11111222,11144222' 
ADCP,ioos:station:wmo:42369:1,2013-02-01T20:00:00Z,27.2070,-90.2830,60.4,2.1,83.0,99.0,'11111222,11111222,11144222' 
ADCP,ioos:station:wmo:42369:1,2013-02-01T20:20:00Z,27.2070,-90.2830,60.4,2.5,90.0,99.0,'11111222,11111222,11144222' 
ADCP,ioos:station:wmo:42369:1,2013-02-01T20:40:00Z,27.2070,-90.2830,60.4,3.3,103.0,99.0,'11111222,11111222,11144222' 
ADCP,ioos:station:wmo:42369:1,2013-02-01T21:00:00Z,27.2070,-90.2830,60.4,2.7,94.0,99.0,'11111222,11111222,11144222' 
ADCP,ioos:station:wmo:42369:1,2013-02-01T21:20:00Z,27.2070,-90.2830,60.4,2.7,99.0,99.0,'11111222,11111222,11144222' 
ADCP,ioos:station:wmo:42369:1,2013-02-01T21:40:00Z,27.2070,-90.2830,60.4,2.1,93.0,99.0,'11111222,11111222,11144222' 
ADCP,ioos:station:wmo:42369:1,2013-02-01T22:00:00Z,27.2070,-90.2830,60.4,1.1,132.0,99.0,'11111222,11111222,11144222' 
ADCP,ioos:station:wmo:42369:1,2013-02-01T22:20:00Z,27.2070,-90.2830,60.4,0.7,147.0,99.0,'11111222,11111222,11144222' 
ADCP,ioos:station:wmo:42369:1,2013-02-01T22:40:00Z,27.2070,-90.2830,60.4,1.1,184.0,99.0,'11111222,11111222,11144222' 
ADCP,ioos:station:wmo:42369:1,2013-02-01T23:00:00Z,27.2070,-90.2830,60.4,2.7,117.0,99.0,'11111222,11111222,11144222' 
ADCP,ioos:station:wmo:42369:1,2013-02-01T23:20:00Z,27.2070,-90.2830,60.4,3.6,106.0,99.0,'11111222,11111222,11144222' 
ADCP,ioos:station:wmo:42369:1,2013-02-01T23:40:00Z,27.2070,-90.2830,60.4,5.4,101.0,99.0,'11111222,11111222,11144222' 
ADCP,ioos:station:wmo:42369:1,2013-02-02T00:00:00Z,27.2070,-90.2830,60.4,4.9,103.0,99.0,'11111222,11111222,11144222' 
ADCP,ioos:station:wmo:42369:1,2013-02-02T00:20:00Z,27.2070,-90.2830,60.4,3.8,107.0,99.0,'11111222,11111222,11144222' 
ADCP,ioos:station:wmo:42369:1,2013-02-02T00:40:00Z,27.2070,-90.2830,60.4,4.3,104.0,99.0,'11111222,11111222,11144222' 
ADCP,ioos:station:wmo:42369:1,2013-02-02T01:00:00Z,27.2070,-90.2830,60.4,5.5,106.0,99.0,'11111222,11111222,11144222' 
ADCP,ioos:station:wmo:42369:1,2013-02-02T01:20:00Z,27.2070,-90.2830,60.4,4.6,102.0,99.0,'11111222,11111222,11144222' 
ADCP,ioos:station:wmo:42369:1,2013-02-02T01:40:00Z,27.2070,-90.2830,60.4,3.3,107.0,99.0,'11111222,11111222,11144222' 
ADCP,ioos:station:wmo:42369:1,2013-02-02T02:00:00Z,27.2070,-90.2830,60.4,3.9,104.0,99.0,'11111222,11111222,11144222' 
ADCP,ioos:station:wmo:42369:1,2013-02-02T02:20:00Z,27.2070,-90.2830,60.4,3.5,105.0,99.0,'11111222,11111222,11144222' 
ADCP,ioos:station:wmo:42369:1,2013-02-02T02:40:00Z,27.2070,-90.2830,60.4,4.7,100.0,99.0,'11111222,11111222,11144222' 
ADCP,ioos:station:wmo:42369:1,2013-02-02T03:00:00Z,27.2070,-90.2830,60.4,5.3,102.0,99.0,'11111222,11111222,11144222' 
ADCP,ioos:station:wmo:42369:1,2013-02-02T03:20:00Z,27.2070,-90.2830,60.4,6.1,103.0,99.0,'11111222,11111222,11144222' 
ADCP,ioos:station:wmo:42369:1,2013-02-02T03:40:00Z,27.2070,-90.2830,60.4,6.1,105.0,99.0,'11111222,11111222,11144222' 
ADCP,ioos:station:wmo:42369:1,2013-02-02T04:00:00Z,27.2070,-90.2830,60.4,6.7,108.0,99.0,'11111222,11111222,11144222' 
ADCP,ioos:station:wmo:42369:1,2013-02-02T04:20:00Z,27.2070,-90.2830,60.4,7.0,114.0,99.0,'11111222,11111222,11144222' 
ADCP,ioos:station:wmo:42369:1,2013-02-02T04:40:00Z,27.2070,-90.2830,60.4,6.7,119.0,99.0,'11111222,11111222,11144222' 
ADCP,ioos:station:wmo:42369:1,2013-02-02T05:00:00Z,27.2070,-90.2830,60.4,5.8,111.0,99.0,'11111222,11111222,11144222' 
ADCP,ioos:station:wmo:42369:1,2013-02-02T05:20:00Z,27.2070,-90.2830,60.4,5.8,109.0,99.0,'11111222,11111222,11144222' 
ADCP,ioos:station:wmo:42369:1,2013-02-02T05:40:00Z,27.2070,-90.2830,60.4,5.7,107.0,99.0,'11111222,11111222,11144222' 
ADCP,ioos:station:wmo:42369:1,2013-02-02T06:00:00Z,27.2070,-90.2830,60.4,5.3,107.0,99.0,'11111222,11111222,11144222' 
ADCP,ioos:station:wmo:42369:1,2013-02-02T06:20:00Z,27.2070,-90.2830,60.4,5.7,105.0,99.0,'11111222,11111222,11144222' 
ADCP,ioos:station:wmo:42369:1,2013-02-02T06:40:00Z,27.2070,-90.2830,60.4,5.3,105.0,99.0,'11111222,11111222,11144222' 
ADCP,ioos:station:wmo:42369:1,2013-02-02T07:00:00Z,27.2070,-90.2830,60.4,5.4,106.0,99.0,'11111222,11111222,11144222' 
ADCP,ioos:station:wmo:42369:1,2013-02-02T07:20:00Z,27.2070,-90.2830,60.4,5.7,104.0,99.0,'11111222,11111222,11144222' 
ADCP,ioos:station:wmo:42369:1,2013-02-02T07:40:00Z,27.2070,-90.2830,60.4,6.4,107.0,99.0,'11111222,11111222,11144222' 
ADCP,ioos:station:wmo:42369:1,2013-02-02T08:00:00Z,27.2070,-90.2830,60.4,6.1,110.0,99.0,'11111222,11111222,11144222' 
ADCP,ioos:station:wmo:42369:1,2013-02-02T08:20:00Z,27.2070,-90.2830,60.4,5.3,110.0,99.0,'11111222,11111222,11144222' 
ADCP,ioos:station:wmo:42369:1,2013-02-02T08:40:00Z,27.2070,-90.2830,60.4,6.0,107.0,99.0,'11111222,11111222,11144222' 
ADCP,ioos:station:wmo:42369:1,2013-02-02T09:00:00Z,27.2070,-90.2830,60.4,5.3,104.0,99.0,'11111222,11111222,11144222' 
ADCP,ioos:station:wmo:42369:1,2013-02-02T09:20:00Z,27.2070,-90.2830,60.4,4.3,111.0,99.0,'11111222,11111222,11144222' 
ADCP,ioos:station:wmo:42369:1,2013-02-02T09:40:00Z,27.2070,-90.2830,60.4,3.9,103.0,99.0,'11111222,11111222,11144222' 
ADCP,ioos:station:wmo:42369:1,2013-02-02T10:00:00Z,27.2070,-90.2830,60.4,2.7,113.0,99.0,'11111222,11111222,11144222' 
ADCP,ioos:station:wmo:42369:1,2013-02-02T10:20:00Z,27.2070,-90.2830,60.4,3.1,103.0,99.0,'11111222,11111222,11144222' 
ADCP,ioos:station:wmo:42369:1,2013-02-02T10:40:00Z,27.2070,-90.2830,60.4,2.0,154.0,99.0,'11111222,11111222,11144222' 
ADCP,ioos:station:wmo:42369:1,2013-02-02T11:00:00Z,27.2070,-90.2830,60.4,2.2,135.0,99.0,'11111222,11111222,11144222' 
ADCP,ioos:station:wmo:42369:1,2013-02-02T11:20:00Z,27.2070,-90.2830,60.4,5.3,105.0,99.0,'11111222,11111222,11144222' 
ADCP,ioos:station:wmo:42369:1,2013-02-02T11:40:00Z,27.2070,-90.2830,60.4,4.1,104.0,99.0,'11111222,11111222,11144222' 
ADCP,ioos:station:wmo:42369:1,2013-02-02T12:00:00Z,27.2070,-90.2830,60.4,4.6,102.0,99.0,'11111222,11111222,11144222' 
ADCP,ioos:station:wmo:42369:1,2013-02-02T12:20:00Z,27.2070,-90.2830,60.4,4.1,103.0,99.0,'11111222,11111222,11144222' 
ADCP,ioos:station:wmo:42369:1,2013-02-02T12:40:00Z,27.2070,-90.2830,60.4,5.7,105.0,99.0,'11111222,11111222,11144222' 
ADCP,ioos:station:wmo:42369:1,2013-02-02T13:00:00Z,27.2070,-90.2830,60.4,4.6,103.0,99.0,'11111222,11111222,11144222' 
ADCP,ioos:station:wmo:42369:1,2013-02-02T13:20:00Z,27.2070,-90.2830,60.4,3.9,102.0,99.0,'11111222,11111222,11144222' 
ADCP,ioos:station:wmo:42369:1,2013-02-02T13:40:00Z,27.2070,-90.2830,60.4,4.6,104.0,99.0,'11111222,11111222,11144222' 
ADCP,ioos:station:wmo:42369:1,2013-02-02T14:00:00Z,27.2070,-90.2830,60.4,4.4,101.0,99.0,'11111222,11111222,11144222' 
ADCP,ioos:station:wmo:42369:1,2013-02-02T14:20:00Z,27.2070,-90.2830,60.4,4.0,104.0,99.0,'11111222,11111222,11144222' 
ADCP,ioos:station:wmo:42369:1,2013-02-02T14:40:00Z,27.2070,-90.2830,60.4,5.0,102.0,99.0,'11111222,11111222,11144222' 
ADCP,ioos:station:wmo:42369:1,2013-02-02T15:00:00Z,27.2070,-90.2830,60.4,4.1,103.0,99.0,'11111222,11111222,11144222' 
ADCP,ioos:station:wmo:42369:1,2013-02-02T15:20:00Z,27.2070,-90.2830,60.4,3.8,102.0,99.0,'11111222,11111222,11144222' 
ADCP,ioos:station:wmo:42369:1,2013-02-02T15:40:00Z,27.2070,-90.2830,60.4,3.1,108.0,99.0,'11111222,11111222,11144222' 
ADCP,ioos:station:wmo:42369:1,2013-02-02T16:00:00Z,27.2070,-90.2830,60.4,2.2,100.0,99.0,'11111222,11111222,11144222' 
ADCP,ioos:station:wmo:42369:1,2013-02-02T16:20:00Z,27.2070,-90.2830,60.4,2.4,91.0,99.0,'11111222,11111222,11144222' 
ADCP,ioos:station:wmo:42369:1,2013-02-02T16:40:00Z,27.2070,-90.2830,60.4,3.0,106.0,99.0,'11111222,11111222,11144222' 
ADCP,ioos:station:wmo:42369:1,2013-02-02T17:00:00Z,27.2070,-90.2830,60.4,2.9,102.0,99.0,'11111222,11111222,11144222' 
ADCP,ioos:station:wmo:42369:1,2013-02-02T17:20:00Z,27.2070,-90.2830,60.4,2.5,106.0,99.0,'11111222,11111222,11144222' 
ADCP,ioos:station:wmo:42369:1,2013-02-02T17:40:00Z,27.2070,-90.2830,60.4,2.4,100.0,99.0,'11111222,11111222,11144222' 
ADCP,ioos:station:wmo:42369:1,2013-02-02T18:00:00Z,27.2070,-90.2830,60.4,3.4,103.0,99.0,'11111222,11111222,11144222' 
ADCP,ioos:station:wmo:42369:1,2013-02-02T18:20:00Z,27.2070,-90.2830,60.4,4.1,104.0,99.0,'11111222,11111222,11144222' 
ADCP,ioos:station:wmo:42369:1,2013-02-02T18:40:00Z,27.2070,-90.2830,60.4,4.6,104.0,99.0,'11111222,11111222,11144222' 
ADCP,ioos:station:wmo:42369:1,2013-02-02T19:00:00Z,27.2070,-90.2830,60.4,3.3,135.0,99.0,'11111222,11111222,11144222' 
ADCP,ioos:station:wmo:42369:1,2013-02-02T19:20:00Z,27.2070,-90.2830,60.4,2.6,149.0,99.0,'11111222,11111222,11144222' 
ADCP,ioos:station:wmo:42369:1,2013-02-02T19:40:00Z,27.2070,-90.2830,60.4,1.9,155.0,99.0,'11111222,11111222,11144222' 
ADCP,ioos:station:wmo:42369:1,2013-02-02T20:00:00Z,27.2070,-90.2830,60.4,3.4,116.0,99.0,'11111222,11111222,11144222' 
ADCP,ioos:station:wmo:42369:1,2013-02-02T20:20:00Z,27.2070,-90.2830,60.4,4.9,106.0,99.0,'11111222,11111222,11144222' 
ADCP,ioos:station:wmo:42369:1,2013-02-02T20:40:00Z,27.2070,-90.2830,60.4,3.8,117.0,99.0,'11111222,11111222,11144222' 
ADCP,ioos:station:wmo:42369:1,2013-02-02T21:00:00Z,27.2070,-90.2830,60.4,2.1,128.0,99.0,'11111222,11111222,11144222' 
ADCP,ioos:station:wmo:42369:1,2013-02-02T21:20:00Z,27.2070,-90.2830,60.4,1.9,131.0,99.0,'11111222,11111222,11144222' 
ADCP,ioos:station:wmo:42369:1,2013-02-02T21:40:00Z,27.2070,-90.2830,60.4,2.3,129.0,99.0,'11111222,11111222,11144222' 
ADCP,ioos:station:wmo:42369:1,2013-02-02T22:00:00Z,27.2070,-90.2830,60.4,2.1,117.0,99.0,'11111222,11111222,11144222' 
ADCP,ioos:station:wmo:42369:1,2013-02-02T22:20:00Z,27.2070,-90.2830,60.4,3.0,118.0,99.0,'11111222,11111222,11144222' 
ADCP,ioos:station:wmo:42369:1,2013-02-02T22:40:00Z,27.2070,-90.2830,60.4,1.8,143.0,99.0,'11111222,11111222,11144222' 
ADCP,ioos:station:wmo:42369:1,2013-02-02T23:00:00Z,27.2070,-90.2830,60.4,3.5,116.0,99.0,'11111222,11111222,11144222' 
ADCP,ioos:station:wmo:42369:1,2013-02-02T23:20:00Z,27.2070,-90.2830,60.4,3.9,103.0,99.0,'11111222,11111222,11144222' 
ADCP,ioos:station:wmo:42369:1,2013-02-02T23:40:00Z,27.2070,-90.2830,60.4,3.7,107.0,99.0,'11111222,11111222,11144222' 
ADCP,ioos:station:wmo:42369:1,2013-02-03T00:00:00Z,27.2070,-90.2830,60.4,4.7,106.0,99.0,'11111222,11111222,11144222' 
ADCP,ioos:station:wmo:42369:1,2013-02-03T00:20:00Z,27.2070,-90.2830,60.4,4.1,105.0,99.0,'11111222,11111222,11144222' 
ADCP,ioos:station:wmo:42369:1,2013-02-03T00:40:00Z,27.2070,-90.2830,60.4,4.4,106.0,99.0,'11111222,11111222,11144222' 
ADCP,ioos:station:wmo:42369:1,2013-02-03T01:00:00Z,27.2070,-90.2830,60.4,3.8,108.0,99.0,'11111222,11111222,11144222' 
ADCP,ioos:station:wmo:42369:1,2013-02-03T01:20:00Z,27.2070,-90.2830,60.4,3.1,107.0,99.0,'11111222,11111222,11144222' 
ADCP,ioos:station:wmo:42369:1,2013-02-03T01:40:00Z,27.2070,-90.2830,60.4,3.8,121.0,99.0,'11111222,11111222,11144222' 
ADCP,ioos:station:wmo:42369:1,2013-02-03T02:00:00Z,27.2070,-90.2830,60.4,3.2,140.0,99.0,'11111222,11111222,11144222' 
ADCP,ioos:station:wmo:42369:1,2013-02-03T02:20:00Z,27.2070,-90.2830,60.4,3.1,140.0,99.0,'11111222,11111222,11144222' 
ADCP,ioos:station:wmo:42369:1,2013-02-03T02:40:00Z,27.2070,-90.2830,60.4,2.2,143.0,99.0,'11111222,11111222,11144222' 
ADCP,ioos:station:wmo:42369:1,2013-02-03T03:00:00Z,27.2070,-90.2830,60.4,2.9,123.0,99.0,'11111222,11111222,11144222' 
ADCP,ioos:station:wmo:42369:1,2013-02-03T03:20:00Z,27.2070,-90.2830,60.4,3.1,108.0,99.0,'11111222,11111222,11144222' 
ADCP,ioos:station:wmo:42369:1,2013-02-03T03:40:00Z,27.2070,-90.2830,60.4,1.7,99.0,99.0,'11111222,11111222,11144222' 
ADCP,ioos:station:wmo:42369:1,2013-02-03T04:00:00Z,27.2070,-90.2830,60.4,1.2,94.0,99.0,'11111222,11111222,11144222' 
ADCP,ioos:station:wmo:42369:1,2013-02-03T04:20:00Z,27.2070,-90.2830,60.4,1.4,86.0,99.0,'11111222,11111222,11144222' 
ADCP,ioos:station:wmo:42369:1,2013-02-03T04:40:00Z,27.2070,-90.2830,60.4,1.6,92.0,99.0,'11111222,11111222,11144222' 
ADCP,ioos:station:wmo:42369:1,2013-02-03T05:00:00Z,27.2070,-90.2830,60.4,1.5,95.0,99.0,'11111222,11111222,11144222' 
ADCP,ioos:station:wmo:42369:1,2013-02-03T05:20:00Z,27.2070,-90.2830,60.4,1.4,88.0,99.0,'11111222,11111222,11144222' 
ADCP,ioos:station:wmo:42369:1,2013-02-03T05:40:00Z,27.2070,-90.2830,60.4,1.4,98.0,99.0,'11111222,11111222,11144222' 
ADCP,ioos:station:wmo:42369:1,2013-02-03T06:00:00Z,27.2070,-90.2830,60.4,0.8,84.0,99.0,'11111222,11111222,11144222' 
ADCP,ioos:station:wmo:42369:1,2013-02-03T06:20:00Z,27.2070,-90.2830,60.4,0.8,77.0,99.0,'11111222,11111222,11144222' 
ADCP,ioos:station:wmo:42369:1,2013-02-03T06:40:00Z,27.2070,-90.2830,60.4,0.5,76.0,99.0,'11111222,11111222,11144222' 
ADCP,ioos:station:wmo:42369:1,2013-02-03T07:00:00Z,27.2070,-90.2830,60.4,0.5,88.0,99.0,'11111222,11111222,11144222' 
ADCP,ioos:station:wmo:42369:1,2013-02-03T07:20:00Z,27.2070,-90.2830,60.4,0.5,73.0,99.0,'11111222,11111222,11144222' 
ADCP,ioos:station:wmo:42369:1,2013-02-03T07:40:00Z,27.2070,-90.2830,60.4,0.5,98.0,99.0,'11111222,11111222,11144222' 
ADCP,ioos:station:wmo:42369:1,2013-02-03T08:00:00Z,27.2070,-90.2830,60.4,0.4,103.0,99.0,'11111222,11111222,11144222' 
ADCP,ioos:station:wmo:42369:1,2013-02-03T08:20:00Z,27.2070,-90.2830,60.4,0.4,76.0,99.0,'11111222,11111222,11144222' 
ADCP,ioos:station:wmo:42369:1,2013-02-03T08:40:00Z,27.2070,-90.2830,60.4,0.4,76.0,99.0,'11111222,11111222,11144222' 
ADCP,ioos:station:wmo:42369:1,2013-02-03T09:00:00Z,27.2070,-90.2830,60.4,0.4,83.0,99.0,'11111222,11111222,11144222' 
ADCP,ioos:station:wmo:42369:1,2013-02-03T09:20:00Z,27.2070,-90.2830,60.4,0.3,72.0,99.0,'11111222,11111222,11144222' 
ADCP,ioos:station:wmo:42369:1,2013-02-03T09:40:00Z,27.2070,-90.2830,60.4,0.3,106.0,99.0,'11111222,11111222,11144222' 
ADCP,ioos:station:wmo:42369:1,2013-02-03T10:00:00Z,27.2070,-90.2830,60.4,0.2,99.0,99.0,'11111222,11111222,11144222' 
ADCP,ioos:station:wmo:42369:1,2013-02-03T10:20:00Z,27.2070,-90.2830,60.4,0.4,125.0,99.0,'11111222,11111222,11144222' 
ADCP,ioos:station:wmo:42369:1,2013-02-03T10:40:00Z,27.2070,-90.2830,60.4,0.6,100.0,99.0,'11111222,11111222,11144222' 
ADCP,ioos:station:wmo:42369:1,2013-02-03T11:00:00Z,27.2070,-90.2830,60.4,0.4,62.0,99.0,'11111222,11111222,11144222' 
ADCP,ioos:station:wmo:42369:1,2013-02-03T11:20:00Z,27.2070,-90.2830,60.4,0.5,67.0,99.0,'11111222,11111222,11144222' 
ADCP,ioos:station:wmo:42369:1,2013-02-03T11:40:00Z,27.2070,-90.2830,60.4,0.5,70.0,99.0,'11111222,11111222,11144222' 
ADCP,ioos:station:wmo:42369:1,2013-02-03T12:00:00Z,27.2070,-90.2830,60.4,0.3,80.0,99.0,'11111222,11111222,11144222' 
ADCP,ioos:station:wmo:42369:1,2013-02-03T12:20:00Z,27.2070,-90.2830,60.4,0.5,78.0,99.0,'11111222,11111222,11144222' 
ADCP,ioos:station:wmo:42369:1,2013-02-03T12:40:00Z,27.2070,-90.2830,60.4,0.5,77.0,99.0,'11111222,11111222,11144222' 
ADCP,ioos:station:wmo:42369:1,2013-02-03T13:00:00Z,27.2070,-90.2830,60.4,0.7,75.0,99.0,'11111222,11111222,11144222' 
ADCP,ioos:station:wmo:42369:1,2013-02-03T13:20:00Z,27.2070,-90.2830,60.4,0.7,81.0,99.0,'11111222,11111222,11144222' 
ADCP,ioos:station:wmo:42369:1,2013-02-03T13:40:00Z,27.2070,-90.2830,60.4,0.7,79.0,99.0,'11111222,11111222,11144222' 
ADCP,ioos:station:wmo:42369:1,2013-02-03T14:00:00Z,27.2070,-90.2830,60.4,0.6,71.0,99.0,'11111222,11111222,11144222' 
ADCP,ioos:station:wmo:42369:1,2013-02-03T14:20:00Z,27.2070,-90.2830,60.4,0.6,83.0,99.0,'11111222,11111222,11144222' 
ADCP,ioos:station:wmo:42369:1,2013-02-03T14:40:00Z,27.2070,-90.2830,60.4,0.8,102.0,99.0,'11111222,11111222,11144222' 
ADCP,ioos:station:wmo:42369:1,2013-02-03T15:00:00Z,27.2070,-90.2830,60.4,1.3,93.0,99.0,'11111222,11111222,11144222' 
ADCP,ioos:station:wmo:42369:1,2013-02-03T15:20:00Z,27.2070,-90.2830,60.4,1.5,93.0,99.0,'11111222,11111222,11144222' 
ADCP,ioos:station:wmo:42369:1,2013-02-03T15:40:00Z,27.2070,-90.2830,60.4,1.4,101.0,99.0,'11111222,11111222,11144222' 
ADCP,ioos:station:wmo:42369:1,2013-02-03T16:00:00Z,27.2070,-90.2830,60.4,1.3,102.0,99.0,'11111222,11111222,11144222' 
ADCP,ioos:station:wmo:42369:1,2013-02-03T16:20:00Z,27.2070,-90.2830,60.4,1.1,129.0,99.0,'11111222,11111222,11144222' 
ADCP,ioos:station:wmo:42369:1,2013-02-03T16:40:00Z,27.2070,-90.2830,60.4,1.3,120.0,99.0,'11111222,11111222,11144222' 
ADCP,ioos:station:wmo:42369:1,2013-02-03T17:00:00Z,27.2070,-90.2830,60.4,1.1,103.0,99.0,'11111222,11111222,11144222' 
ADCP,ioos:station:wmo:42369:1,2013-02-03T17:20:00Z,27.2070,-90.2830,60.4,1.0,105.0,99.0,'11111222,11111222,11144222' 
ADCP,ioos:station:wmo:42369:1,2013-02-03T17:40:00Z,27.2070,-90.2830,60.4,0.8,111.0,99.0,'11111222,11111222,11144222' 
ADCP,ioos:station:wmo:42369:1,2013-02-03T18:00:00Z,27.2070,-90.2830,60.4,0.6,111.0,99.0,'11111222,11111222,11144222' 
ADCP,ioos:station:wmo:42369:1,2013-02-03T18:20:00Z,27.2070,-90.2830,60.4,0.8,110.0,99.0,'11111222,11111222,11144222' 
ADCP,ioos:station:wmo:42369:1,2013-02-03T18:40:00Z,27.2070,-90.2830,60.4,1.3,100.0,99.0,'11111222,11111222,11144222' 
ADCP,ioos:station:wmo:42369:1,2013-02-03T19:00:00Z,27.2070,-90.2830,60.4,1.1,93.0,99.0,'11111222,11111222,11144222' 
ADCP,ioos:station:wmo:42369:1,2013-02-03T19:20:00Z,27.2070,-90.2830,60.4,1.2,96.0,99.0,'11111222,11111222,11144222' 